INTELSAT 33E DEB, 61989

Orbit data source: Space-Track

INTELSAT 33E DEB, 61989 is space debris in GEO originally from a launch on Wed, 24 Aug 2016 UTC launched from the French Guiana (FRGUI). Debris objects in space refer to the collection of defunct objects orbiting the Earth. Examples of debris include non-operational satellites, rocket bodies, and fragments generated from explosions, collisions, or faulty payload assembly.

Loading next visibility...
Identifier
61989, 2016-053F
Orbit
GEO
Last TLE update
4 months ago
Origin
Manufacturer
Boeing/ES
Mission
Spacecraft
Bus & Motor
Unknown
Mass
Unknown
Launch date (UTC)
2016-08-24 (9 years ago)
Launch vehicle
Unknown
Launch site
French Guiana (FRGUI)
Object type
Payload
Rocket body
Debris
Shape & HBR
Unknown
Radar Cross Section
RCS unknown

Expand to show TLE details & history

TLE from 4 months ago
0 INTELSAT 33E DEB
1 61989U 16053F   25052.66575288 -.00000145  00000-0  00000-0 0  9990
2 61989   1.4207 144.4385 0102762 225.7200 133.1052  0.98002009  1132
Epoch: 2025-02-21T15:58Z
TLE epoch observation values (Epoch: 2025-02-21T15:58:41.048Z)
Latitude
-0.00001°
Longitude
112.63668°
Altitude
36,739.329 km
Speed
3.03 km/s
True Right ascension
09h 36m 31s
True Declination
0° 00' 00"
Sunlit
Object was in daylight at epoch
Visualization orbit readout
Latitude
-1.52591°
Longitude
33.13433°
Altitude
36,161.737 km
Speed
3.071 km/s
Apparent Right ascension
04h 33m 34s
Apparent Declination
-7° 42' 51"
Sunlit
Object is in daylight
Visualization observer readout
Local Sidereal Time
02:14:36
Azimuth
137.922° SSE
Elevation
32.576°
Doppler factor
1
Orbital elements
Apogee altitude
36,876.168 km
Perigee altitude
35,996.231 km
Semi-major axis
42,814.336 km
Eccentricity
0.01028
Inclination
1.4207°
RAAN
144.4385°
Arg. of periapsis
225.72°
True anomaly
Unknown
Mean anomaly
133.1052°
Eccentric anomaly
Unknown
Mean motion
0.245 °/min
Orbital period
1,469.41 mins
BSTAR
0
Loading historical data...
61989 neighbors
Loading maneuver chart data...
Loading SW <> Apogee altitude chart data...
Loading historical data...
Loading historical data...
Loading historical data...
Loading historical data...
Loading historical data...
Loading historical data...
Loading historical data...

INTELSAT 33E DEB Visibility forecast

Observer location: undefined°, undefined°

Span
Click to sort rows by Start time (UTC) header in descending order
Start Az.
Max El. time (UTC)
Max El. Az.
Max El.
End time (UTC)
End Az.
1440 mins2025-06-12 15:50:10.837Z137.934° SSE2025-06-13 05:37:10.837Z144.1° SSE32.143°2025-06-13 15:50:10.837Z147.784° SSE
|